Temperature
-12 -11 -10 -10 -9 -9 -9 -9 -8 -8 -7 -6 -5 -3 -2 -1 0 2 4 5 6 7 8 9 10 11 12 12 13 13 12 12 13 13 13 14 14 14
-11 -10 -10 -9 -9 -9 -9 -8 -8 -8 -7 -6 -6 -4 -3 -2 -0 1 3 5 6 7 7 9 10 11 11 12 12 12 12 12 12 13 13 13 14 14
-10 -10 -10 -9 -9 -9 -8 -8 -8 -8 -7 -6 -5 -4 -3 -2 -0 1 2 4 6 7 7 8 9 10 11 11 12 12 12 12 12 12 13 13 13 13
-10 -10 -10 -9 -9 -9 -9 -8 -8 -8 -8 -7 -5 -4 -3 -2 -1 1 2 4 5 6 7 8 9 10 10 11 12 12 12 12 12 12 13 13 13 13
-10 -10 -10 -10 -10 -9 -9 -9 -9 -8 -8 -7 -6 -4 -3 -2 -1 0 2 3 5 6 7 8 9 9 10 11 11 12 12 12 12 12 12 12 13 13
-10 -10 -10 -10 -10 -10 -10 -10 -9 -9 -8 -7 -6 -5 -4 -2 -2 -0 2 3 4 6 7 8 8 9 10 10 11 11 12 12 12 12 12 12 12 12
-10 -10 -10 -10 -10 -10 -10 -10 -10 -9 -9 -8 -7 -6 -4 -3 -2 -1 1 2 4 5 7 7 8 9 9 10 10 11 11 12 12 12 12 12 12 12
-11 -11 -11 -11 -11 -11 -11 -11 -10 -10 -10 -9 -9 -7 -6 -5 -3 -2 -1 2 3 5 6 7 7 8 9 9 10 11 11 11 12 12 12 12 12 12
-12 -12 -12 -12 -11 -11 -11 -10 -10 -10 -10 -10 -9 -8 -7 -6 -4 -3 -2 0 2 3 5 6 7 7 8 9 10 10 11 11 12 12 12 12 12 11
-13 -13 -13 -12 -12 -11 -11 -11 -11 -10 -10 -10 -10 -9 -8 -6 -5 -4 -2 -0 1 3 4 5 6 7 7 8 9 10 10 11 11 11 12 12 12 11
-13 -13 -13 -13 -12 -12 -12 -12 -11 -10 -10 -10 -9 -9 -7 -6 -5 -4 -2 -1 1 2 3 4 5 6 7 7 8 9 10 10 11 11 11 11 11 10
-13 -14 -13 -13 -13 -13 -13 -13 -12 -11 -10 -9 -8 -8 -7 -6 -5 -4 -3 -2 -0 1 2 3 5 5 6 7 7 8 9 9 10 10 10 10 10 10
-14 -14 -14 -13 -13 -13 -13 -13 -13 -12 -10 -10 -9 -8 -7 -6 -5 -4 -3 -2 -1 1 2 2 3 5 6 6 7 7 8 8 9 9 9 9 10 10
-14 -14 -14 -14 -14 -14 -14 -13 -12 -11 -11 -10 -9 -8 -7 -6 -5 -4 -3 -2 -1 0 1 2 3 4 5 6 6 7 7 8 8 8 8 9 9 9
-14 -14 -14 -14 -14 -14 -14 -14 -12 -12 -11 -11 -11 -10 -9 -8 -6 -4 -3 -2 -1 -0 1 1 2 3 5 6 6 6 6 6 7 7 7 7 7 7
-14 -14 -14 -14 -14 -14 -14 -13 -13 -13 -13 -12 -11 -10 -9 -8 -6 -5 -3 -2 -2 -1 0 1 2 3 4 5 6 6 6 5 5 6 6 5 5 6
-13 -14 -14 -14 -14 -14 -14 -14 -14 -13 -12 -12 -11 -11 -10 -9 -8 -6 -4 -3 -2 -1 -0 1 2 2 3 4 5 5 5 5 4 5 5 4 4 3
-13 -14 -14 -14 -15 -15 -15 -14 -14 -14 -13 -13 -12 -11 -11 -10 -9 -7 -6 -4 -3 -2 -1 -0 1 2 2 2 3 3 4 4 4 4 4 4 2 2
-13 -13 -14 -14 -14 -15 -15 -15 -15 -14 -14 -13 -12 -12 -11 -11 -10 -9 -7 -6 -4 -3 -1 -1 0 1 1 1 0 1 2 3 3 2 2 3 2 1
-12 -13 -13 -14 -14 -14 -14 -14 -14 -14 -14 -13 -13 -12 -12 -11 -11 -10 -9 -8 -6 -4 -3 -2 -1 0 1 0 -1 -1 0 1 2 2 1 0 -0 -1
-12 -12 -13 -13 -14 -14 -14 -14 -14 -14 -14 -14 -13 -13 -12 -12 -12 -11 -10 -9 -8 -6 -4 -3 -2 -1 0 0 -1 -2 -2 -1 1 2 1 0 -1 -1
-11 -12 -12 -12 -13 -13 -14 -14 -14 -14 -14 -14 -14 -13 -13 -12 -12 -12 -11 -10 -10 -9 -8 -6 -4 -3 -2 -1 -3 -3 -3 -2 -2 -1 0 1 1 -0
-11 -11 -11 -12 -12 -13 -13 -13 -14 -14 -14 -14 -14 -14 -13 -13 -12 -12 -12 -12 -11 -10 -9 -8 -7 -5 -5 -5 -5 -4 -4 -3 -2 -2 -1 -1 -0 0
Wind_Speed
11 12 10 9 9 9 9 10 10 12 11 6 5 7 9 9 14 11 9 11 11 10 10 11 10 11 15 19 25 31 32 30 28 28 29 30 30 30
9 10 10 8 8 8 9 9 9 10 10 6 7 10 12 12 16 11 10 13 10 9 9 10 9 10 14 18 23 27 30 29 28 30 32 32 30 29
9 9 10 10 8 7 7 7 7 8 11 10 9 10 11 12 11 9 8 6 5 8 10 10 8 9 14 17 22 27 29 30 29 30 33 33 31 29
10 9 10 9 9 8 7 8 7 7 8 12 10 8 9 10 10 9 7 5 4 7 9 10 7 8 13 17 21 24 27 29 30 30 31 32 31 29
11 11 11 11 11 9 8 8 8 8 7 9 9 8 7 7 7 7 6 4 4 4 6 7 6 7 12 15 19 22 25 28 30 30 29 30 31 31
13 13 12 12 12 12 10 10 10 9 9 8 8 7 6 6 4 4 3 2 2 2 3 3 3 5 10 14 17 20 23 26 28 30 29 29 30 30
14 14 14 20 22 17 14 12 11 9 9 8 8 7 6 6 5 4 4 3 2 1 1 1 0 2 4 9 12 17 20 23 25 28 30 31 31 30
14 14 14 16 21 22 24 21 18 14 11 8 7 9 9 8 7 7 5 2 1 2 1 1 1 3 4 5 10 15 17 20 23 25 29 32 33 33
12 13 15 18 20 9 17 21 18 21 18 11 8 9 9 9 10 8 7 4 3 3 3 1 1 3 3 5 13 15 16 18 20 23 26 29 31 33
11 12 13 14 18 15 13 13 11 11 15 10 8 8 9 10 8 7 7 7 6 3 1 1 0 1 2 4 12 14 15 16 19 22 25 28 30 33
11 14 16 12 24 25 16 15 14 11 16 19 17 15 16 16 12 7 6 3 2 1 1 0 0 1 2 2 6 13 15 16 18 21 25 27 30 32
9 12 20 22 25 26 15 15 16 13 13 14 14 14 11 12 15 8 5 4 3 1 1 0 1 1 2 2 3 6 9 13 18 21 26 31 34 25
10 10 13 26 25 25 21 15 19 16 12 11 10 9 9 8 8 7 5 4 3 2 4 3 1 0 2 3 3 4 7 8 9 15 28 34 36 29
8 9 13 25 24 24 20 22 24 19 11 11 11 11 11 11 11 10 8 6 6 7 7 5 2 2 2 5 5 5 8 9 11 13 14 25 30 34
6 15 19 22 20 17 22 25 20 13 12 12 12 11 10 11 10 9 8 7 5 5 5 5 4 3 2 6 7 7 8 10 13 15 15 14 15 18
5 11 16 18 16 18 18 15 13 13 12 11 11 11 10 10 10 9 8 8 4 3 4 4 1 0 1 6 13 14 10 8 11 16 17 15 14 17
5 5 6 8 10 10 11 11 11 12 12 12 12 12 12 12 11 10 8 7 5 4 4 4 8 10 11 7 12 13 15 17 16 16 18 18 14 13
7 4 6 7 8 9 10 10 10 11 11 12 11 11 11 12 11 10 9 8 7 6 5 2 4 8 8 12 14 13 17 17 16 14 17 21 17 13
5 4 4 5 5 6 6 7 8 9 9 10 10 11 11 11 11 11 11 9 8 8 7 5 2 4 12 7 10 12 14 18 19 17 15 17 19 14
3 4 4 4 4 4 5 5 6 8 8 9 9 10 10 11 11 12 11 11 9 9 9 9 8 5 8 8 6 7 11 13 20 21 19 17 16 21
6 5 4 4 3 3 4 4 5 6 7 7 8 9 10 9 10 11 11 15 12 10 10 9 8 10 8 9 12 11 13 18 17 19 22 20 16 12
8 6 5 4 3 3 3 3 4 5 6 6 7 8 8 9 10 11 11 10 10 10 10 9 9 9 9 15 18 18 18 19 23 25 18 10 9 9
10 8 6 4 3 3 2 2 3 3 4 5 6 7 7 8 8 9 10 10 10 11 10 11 12 13 13 14 16 17 20 18 16 17 18 26 30 32
Wind_Direction
283 283 282 282 283 283 282 283 288 298 304 290 294 314 324 314 311 312 312 317 326 324 318 305 278 239 215 201 192 190 193 194 191 188 189 190 189 187
287 289 292 290 288 287 284 282 280 282 286 288 293 297 301 303 304 308 303 306 313 323 316 308 279 237 212 192 183 182 188 191 191 189 190 188 187 183
311 310 309 307 309 304 301 298 294 289 286 290 285 289 290 293 296 295 289 283 294 312 317 308 279 232 208 189 181 182 186 188 190 191 191 188 184 179
335 333 332 337 333 325 323 320 311 300 294 295 295 292 288 289 287 286 285 284 278 297 308 306 283 231 203 189 180 181 183 185 188 191 190 185 180 175
354 352 348 347 347 343 340 338 330 325 312 301 298 294 292 294 290 284 277 270 276 291 303 305 280 229 198 185 179 179 180 181 183 186 185 179 175 173
6 1 355 357 358 351 353 353 343 336 333 324 314 312 310 307 301 300 303 274 284 303 307 304 283 224 190 180 177 176 177 178 180 181 179 173 170 169
3 359 355 1 5 5 1 1 353 346 347 342 340 339 338 346 343 326 307 291 285 304 338 317 260 193 179 172 169 170 172 176 178 177 173 168 165 164
0 356 352 353 0 6 3 4 3 357 357 354 347 344 341 339 335 332 320 325 349 8 3 315 169 184 172 163 165 168 170 173 175 175 172 168 164 162
356 354 355 352 355 1 360 1 359 360 360 357 342 338 332 335 334 332 333 335 326 343 358 352 170 186 167 163 163 166 168 169 170 171 169 167 164 160
350 349 348 346 347 10 0 352 352 353 352 351 343 338 338 334 333 320 308 306 289 273 346 339 266 170 152 154 167 165 164 165 167 167 166 164 161 158
350 354 352 350 356 9 6 354 353 354 354 355 359 359 360 356 359 352 339 316 301 304 89 245 240 110 112 125 159 165 162 163 164 162 160 158 153 150
352 352 353 4 4 8 9 358 357 356 347 345 349 352 351 352 5 6 343 325 321 329 59 314 258 140 116 78 118 150 154 157 156 153 149 145 139 135
355 352 351 4 7 7 10 5 2 1 347 344 344 347 349 350 349 344 328 300 290 305 2 359 322 317 151 123 88 114 130 134 134 137 139 136 134 132
352 345 354 5 8 7 9 8 7 4 355 354 356 357 355 351 343 333 320 296 263 267 296 312 300 254 175 124 111 99 100 107 113 114 118 120 121 126
351 355 1 5 7 5 6 9 8 2 0 358 357 353 347 338 338 338 335 325 293 266 277 262 254 276 229 138 125 122 105 93 104 109 107 108 115 121
355 356 1 3 8 7 7 6 4 3 3 356 352 347 346 350 356 355 351 348 343 338 340 344 331 184 130 132 131 127 117 111 110 107 103 96 91 100
6 2 357 357 2 4 4 5 3 3 2 357 357 355 357 359 0 359 358 0 7 359 358 29 66 73 61 83 126 121 118 115 116 116 110 101 90 94
7 353 349 352 357 359 0 360 -0 2 359 357 359 359 359 0 1 2 8 11 10 4 1 14 106 102 82 46 35 120 120 119 116 113 117 114 106 98
3 331 327 332 337 345 349 352 353 351 352 356 359 359 0 3 7 9 11 12 11 9 5 1 21 130 126 105 27 35 120 125 119 113 110 115 117 116
324 310 308 312 321 331 341 345 346 350 355 357 358 359 2 6 10 12 13 17 16 18 25 29 29 60 114 115 101 56 68 118 126 121 115 108 105 109
323 309 297 296 303 317 329 338 343 348 353 355 359 359 1 6 12 13 15 21 27 30 37 37 40 70 92 100 99 86 72 77 107 124 127 122 117 113
327 312 298 284 282 293 312 331 344 351 355 358 357 359 360 6 11 14 17 21 26 32 39 43 47 64 86 108 110 106 101 94 88 87 84 101 132 136
332 322 303 281 264 252 260 301 331 344 352 355 357 359 2 7 9 15 21 26 31 37 46 59 67 75 84 97 106 108 105 103 98 88 79 88 98 106
Height
1407 1406 1404 1402 1400 1398 1396 1393 1390 1384 1378 1376 1375 1373 1372 1372 1372 1373 1376 1381 1387 1392 1397 1403 1409 1415 1421 1428 1434 1441 1447 1457 1467 1476 1485 1494 1502 1509
1405 1403 1401 1399 1397 1394 1391 1388 1386 1383 1377 1372 1371 1369 1368 1367 1368 1369 1371 1376 1382 1388 1393 1398 1404 1410 1416 1422 1429 1436 1443 1452 1462 1471 1480 1488 1497 1504
1404 1402 1400 1397 1394 1391 1387 1384 1381 1379 1374 1369 1367 1365 1364 1363 1364 1365 1367 1372 1378 1384 1389 1395 1400 1405 1412 1418 1424 1432 1440 1447 1457 1466 1476 1484 1492 1499
1405 1403 1400 1397 1393 1389 1385 1381 1377 1374 1371 1366 1363 1361 1360 1360 1360 1362 1364 1368 1373 1379 1386 1391 1395 1401 1407 1413 1420 1427 1435 1443 1452 1461 1470 1478 1487 1495
1408 1404 1401 1397 1392 1388 1383 1379 1375 1371 1367 1364 1360 1357 1356 1356 1357 1358 1360 1364 1369 1374 1381 1386 1391 1397 1403 1409 1415 1423 1431 1438 1446 1454 1464 1473 1482 1490
1410 1406 1402 1398 1393 1388 1383 1378 1373 1368 1364 1361 1357 1355 1353 1354 1354 1355 1357 1361 1365 1370 1376 1382 1387 1393 1398 1405 1411 1418 1425 1433 1441 1449 1458 1467 1476 1485
1412 1407 1403 1399 1395 1389 1384 1378 1372 1368 1363 1359 1355 1353 1352 1352 1352 1353 1355 1357 1361 1366 1372 1378 1383 1389 1394 1400 1406 1413 1420 1428 1436 1444 1452 1460 1469 1478
1413 1408 1403 1399 1394 1388 1383 1377 1372 1368 1363 1359 1355 1353 1351 1351 1351 1352 1353 1355 1359 1364 1369 1374 1380 1385 1390 1396 1402 1409 1416 1423 1431 1438 1445 1454 1462 1471
1414 1409 1404 1399 1394 1387 1382 1376 1371 1366 1363 1360 1356 1353 1351 1350 1350 1350 1351 1353 1357 1362 1367 1371 1376 1381 1387 1393 1399 1406 1412 1419 1426 1433 1441 1449 1458 1466
1415 1410 1405 1400 1395 1389 1381 1376 1371 1366 1362 1358 1355 1352 1350 1349 1349 1349 1350 1351 1355 1359 1363 1368 1373 1378 1384 1389 1396 1402 1408 1415 1422 1430 1437 1445 1453 1462
1417 1412 1407 1401 1396 1390 1382 1376 1371 1366 1362 1358 1354 1351 1349 1348 1347 1348 1349 1352 1354 1358 1362 1366 1371 1376 1381 1386 1392 1399 1405 1412 1419 1427 1434 1442 1450 1459
1418 1413 1408 1403 1397 1391 1384 1377 1372 1367 1361 1357 1353 1350 1347 1346 1346 1347 1348 1351 1353 1357 1361 1366 1369 1373 1378 1383 1389 1396 1402 1409 1416 1423 1431 1438 1447 1456
1419 1414 1409 1405 1398 1392 1386 1380 1376 1369 1363 1358 1353 1349 1346 1345 1345 1345 1347 1350 1353 1356 1361 1365 1367 1370 1374 1379 1386 1394 1400 1407 1414 1421 1429 1436 1443 1450
1421 1416 1412 1406 1400 1393 1388 1383 1376 1371 1365 1359 1354 1349 1346 1344 1343 1344 1345 1348 1351 1355 1359 1362 1365 1369 1372 1376 1383 1391 1398 1405 1412 1419 1426 1434 1442 1449
1421 1418 1413 1407 1401 1394 1389 1384 1377 1371 1367 1361 1356 1352 1348 1345 1343 1343 1344 1346 1349 1353 1357 1361 1364 1367 1370 1373 1379 1387 1394 1403 1410 1417 1425 1432 1439 1445
1421 1417 1412 1408 1402 1397 1391 1385 1380 1376 1371 1366 1361 1356 1351 1347 1344 1343 1344 1346 1349 1352 1356 1359 1363 1366 1369 1372 1377 1385 1392 1400 1409 1416 1424 1432 1439 1446
1420 1416 1412 1407 1403 1398 1393 1389 1384 1379 1374 1369 1364 1359 1354 1350 1346 1345 1344 1346 1348 1351 1355 1358 1362 1365 1369 1372 1376 1383 1390 1399 1408 1415 1423 1432 1441 1449
1420 1416 1412 1408 1405 1401 1397 1392 1388 1383 1379 1374 1369 1364 1358 1354 1350 1348 1347 1348 1349 1352 1355 1358 1361 1364 1368 1373 1377 1381 1388 1396 1407 1417 1424 1431 1442 1452
1419 1416 1413 1410 1407 1404 1400 1396 1392 1388 1384 1379 1374 1369 1364 1359 1356 1352 1351 1350 1351 1352 1355 1358 1362 1364 1366 1372 1381 1387 1389 1396 1406 1417 1426 1433 1441 1453
1420 1416 1413 1411 1408 1405 1403 1399 1396 1392 1388 1384 1379 1375 1370 1366 1362 1358 1355 1354 1353 1354 1356 1359 1362 1365 1367 1372 1380 1390 1396 1399 1404 1413 1424 1433 1442 1453
1421 1417 1414 1411 1409 1407 1404 1402 1399 1396 1393 1389 1385 1381 1377 1372 1368 1365 1362 1360 1358 1357 1357 1359 1362 1366 1369 1374 1381 1391 1399 1405 1410 1414 1423 1432 1441 1452
1422 1418 1415 1412 1409 1407 1405 1404 1402 1399 1396 1393 1390 1386 1383 1379 1375 1372 1368 1365 1363 1362 1362 1363 1366 1369 1372 1375 1381 1389 1399 1407 1414 1421 1428 1435 1439 1449
1424 1419 1416 1412 1409 1407 1406 1405 1403 1402 1400 1397 1395 1392 1389 1385 1382 1379 1376 1373 1371 1369 1368 1369 1370 1373 1376 1379 1384 1391 1400 1408 1415 1423 1433 1441 1446 1453